Regional Weather Roundup
Issued by NWS Albany, NY

Home | Current Version | Previous Version | Text Only | Print | Product List | Glossary On
Versions: 1 2 3 4 5 6 7 8 9 10 11 12 13 14 15 16 17 18 19 20 21 22 23 24 25 26 27 28 29 30 31 32 33 34 35 36 37 38 39 40 41 42 43 44 45 46 47 48 49 50
000
ASUS41 KALY 251710
RWRALY

NEW YORK STATE HOURLY WEATHER ROUNDUP
NATIONAL WEATHER SERVICE ALBANY NY
1200 PM EST TUE NOV 25 2014

NOTE: "FAIR" INDICATES FEW OR NO CLOUDS BELOW 12,000 FEET WITH NO
SIGNIFICANT WEATHER AND/OR NO OBSTRUCTIONS TO VISIBILITY.

NYZ032-033-038>043-046>054-057>066-NYZ062>081-251800-
EAST


CITY           SKY/WX    TMP DP  RH WIND       PRES   REMARKS
ALBANY         CLOUDY    52  25  35 W12G18    29.93F
GLENS FALLS    PTSUNNY   50  25  37 SW13G20   29.89F
POUGHKEEPSIE   CLOUDY    53  28  38 SW10      29.97S
MONTGOMERY     CLOUDY    51  27  39 W13       29.96F
WHITE PLAINS   CLOUDY    53  25  33 W13       29.96F
ISLIP          CLOUDY    57  32  38 NW9       29.96F
NEW YORK CITY  CLOUDY    54  27  35 W10       29.98F
CENTRAL PARK   CLOUDY    55  25  31 W9G20     30.01F
$$

NYZ005>009-017-018-044>046-055-056-251800-
CENTRAL


CITY           SKY/WX    TMP DP  RH WIND       PRES   REMARKS
FULTON         PTSUNNY   46  26  45 SW14G24   29.92R
SYRACUSE       PTSUNNY   48  27  44 SW10G21   29.92F
ROME           PTSUNNY   45  27  49 W13       29.95S
ELMIRA         PTSUNNY   48  26  42 SW18G31   29.94S
BINGHAMTON     MOSUNNY   45  26  47 W17G29    29.93S
MONTICELLO     CLOUDY    45  27  49 W8G16     29.97S
$$

NYZ026>034-041>043-251800-
NORTH


CITY           SKY/WX    TMP DP  RH WIND       PRES   REMARKS
WATERTOWN      CLOUDY    45  27  49 SW22G32   29.89S
FORT DRUM      NOT AVBL
MASSENA        CLOUDY    46  31  55 SW17G35   29.82S
SARANAC LAKE   CLOUDY    39  26  59 SW15G23   29.80S WCI  31
PLATTSBURGH    NOT AVBL
$$

NYZ001>004-010>016-019>021-251800-
WEST


CITY           SKY/WX    TMP DP  RH WIND       PRES   REMARKS
NIAGARA FALLS  LGT RAIN  39  30  70 SW33G41   29.91R WCI  27
BUFFALO        CLOUDY    40  27  59 SW23G33   29.92R WCI  30
DUNKIRK        CLOUDY    39  27  62 SW20G30   29.96R WCI  29
JAMESTOWN      CLOUDY    36  25  64 SW18G25   29.94F WCI  25
WELLSVILLE     MOSUNNY   42  26  53 W14G24    29.92S
ROCHESTER      CLOUDY    43  26  51 SW23G36   29.93R
PENN YAN       MOSUNNY   47  26  44 SW14G23   29.91S
$$

             KEY
       WCI = WIND CHILL INDEX
       VSB = VISIBILITY
       HX  = HEAT INDEX
$$



USA.gov is the U.S. government's official web portal to all federal, state and local government web resources and services.